Location: *
(49.7115°N, 15.0136°E)
Time: 18:28:17
(UTC+00:00)

ARGOS - Pass Details

Date: 27 February 2020
Orbit: 819 x 835 km, 98.5° (Epoch: 30 March)

Event Time Altitude Azimuth Distance (km) Brightness Sun altitude
Exits shadow 17:23:07 - 128° (SE) 3,324 5.8 -8.0°
Reaches altitude 10° 17:25:37 10° 117° (ESE) 2,446 5.1 -8.4°
Maximum altitude 17:30:08 28° 61° (ENE) 1,528 4.1 -9.2°
Drops below altitude 10° 17:34:41 10° 4° (N) 2,459 5.6 -9.9°
Sets 17:37:20 0° 353° (N) 3,397 6.4 -10.3°
